User: anonymous   Login
Location: Theydon Bois
(51.6750°N, 0.1050°E)
Time: 20:47:34
(UTC+00:00)
Language:

Cosmos 1812 Rocket - Orbit

View from above orbital plane
View from above orbital plane
View from above satellite
View from above satellite

Ground track
Ground track

The orbit data is extracted from the following two-line orbital elements,

1 17296U 87003B   17350.10954325  .00000095  00000-0  86890-5 0  9998
2 17296  82.5299 214.7236 0018673 345.7742  14.2944 14.83212439670086
Epoch (UTC): 16 December 2017 02:37:44
Eccentricity: 0.0018673
inclination: 82.5299°
perigee height: 606 km
apogee height: 632 km
right ascension of ascending node: 214.7236°
argument of perigee: 345.7742°
revolutions per day: 14.83212439
mean anomaly at epoch: 14.2944°
orbit number at epoch: 67008

The dashed part of the orbit path shows where the satellite is in the earth's shadow,  

DLR